This is the latest recevied weather packets stored in our database for station/object AA7VG. If no packets are shown the sender has not sent any weather packets the latest 10 day(s).
| Time | Temp. | Humidity | Pressure | Rain* | Wind** | Luminosity | Snow |
|---|---|---|---|---|---|---|---|
| 1777762783 | 21.67° C | 19% | 1013.9 hPa | 0 mm | - | - | - |
| 1777762478 | 21.67° C | 18% | 1014.2 hPa | 0 mm | - | - | - |
| 1777762176 | 21.67° C | 18% | 1014.4 hPa | 0 mm | - | - | - |
| 1777761872 | 22.22° C | 18% | 1014.5 hPa | 0 mm | - | - | - |
| 1777761569 | 22.22° C | 19% | 1014.3 hPa | 0 mm | - | - | - |
| 1777761267 | 22.78° C | 17% | 1014.4 hPa | 0 mm | - | - | - |
| 1777760965 | 22.78° C | 17% | 1014.4 hPa | 0 mm | - | - | - |
| 1777760662 | 22.78° C | 17% | 1014.4 hPa | 0 mm | - | - | - |
| 1777760362 | 22.78° C | 16% | 1014.4 hPa | 0 mm | - | - | - |
| 1777760059 | 22.78° C | 16% | 1014.6 hPa | 0 mm | - | - | - |
| 1777759756 | 22.78° C | 17% | 1014.6 hPa | 0 mm | - | - | - |
| 1777759452 | 22.78° C | 18% | 1014.6 hPa | 0 mm | - | - | - |
| 1777759149 | 23.33° C | 18% | 1014.7 hPa | 0 mm | - | - | - |
| 1777758846 | 23.33° C | 17% | 1014.7 hPa | 0 mm | - | - | - |
| 1777758543 | 23.33° C | 16% | 1015 hPa | 0 mm | - | - | - |
| 1777758239 | 24.44° C | 15% | 1015 hPa | 0 mm | - | - | - |
| 1777757937 | 24.44° C | 16% | 1015.1 hPa | 0 mm | - | - | - |
| 1777757634 | 25° C | 16% | 1015.1 hPa | 0 mm | - | - | - |
| 1777757333 | 23.89° C | 16% | 1015 hPa | 0 mm | - | - | - |
| 1777757031 | 23.33° C | 17% | 1015.2 hPa | 0 mm | - | - | - |
| 1777756728 | 23.89° C | 16% | 1015.3 hPa | 0 mm | - | - | - |
| 1777756423 | 24.44° C | 16% | 1015.4 hPa | 0 mm | - | - | - |
| 1777756121 | 24.44° C | 17% | 1015.5 hPa | 0 mm | - | - | - |
| 1777755818 | 23.89° C | 16% | 1015.2 hPa | 0 mm | - | - | - |
| 1777755515 | 23.89° C | 16% | 1015.5 hPa | 0 mm | - | - | - |
* Rain latest hour (hover to see other rain measurements)
** Current wind speed in m/s (hover to see current wind gust speed)